Snowfall_Accumulation
0.0 0.0 0.0 0.0 0.0 0.0 0.0 0.0 0.0 0.1 0.0 0.0 0.0 0.0 0.0 0.0 0.0 0.0 0.0 nan nan nan nan nan nan nan nan nan nan nan nan nan nan nan nan nan nan nan
0.0 0.0 0.0 0.0 0.0 0.0 0.0 0.0 0.0 0.0 0.1 0.0 0.0 0.0 0.0 0.0 0.0 0.0 0.0 nan nan nan nan nan nan nan nan nan nan nan nan nan nan nan nan nan nan nan
0.0 0.0 0.0 0.0 0.0 0.0 0.0 0.0 0.0 0.0 0.2 0.0 0.0 0.0 0.0 0.0 0.0 0.0 0.0 0.0 0.0 nan nan nan nan nan nan nan nan nan nan nan nan nan nan nan nan nan
0.0 0.0 0.0 0.0 0.0 0.0 0.0 0.0 0.0 0.0 0.0 0.0 0.0 0.0 0.0 0.0 0.0 0.0 0.0 0.0 0.0 nan nan nan nan nan nan nan nan nan nan nan nan nan nan nan nan nan
0.0 0.0 0.0 0.0 0.0 0.0 0.0 0.0 0.0 0.0 0.0 0.0 0.0 0.0 0.0 0.0 0.0 0.0 0.0 0.0 0.0 nan nan nan nan nan nan nan nan nan nan nan nan nan nan nan nan nan
0.0 0.0 0.0 0.0 0.0 0.0 0.0 0.0 0.0 0.0 0.0 0.0 0.0 0.0 0.0 0.0 0.0 0.0 0.0 0.0 0.0 0.0 nan nan nan nan nan nan nan nan nan nan nan nan nan nan nan nan
0.0 0.0 0.0 nan nan nan 0.0 0.0 0.0 0.0 0.0 0.0 0.0 0.0 0.0 0.0 0.0 0.0 0.0 0.0 0.0 0.0 0.0 0.0 0.0 0.0 0.0 nan nan nan nan nan nan nan nan nan nan nan
0.1 0.0 0.0 0.0 0.0 nan nan nan nan 0.0 0.1 0.2 0.0 0.1 0.0 0.0 0.0 0.0 0.0 0.0 0.4 0.0 0.0 0.0 0.0 0.0 0.0 0.0 nan nan nan nan nan nan nan nan nan nan
0.1 0.1 0.0 0.0 nan 0.0 nan nan nan nan nan 0.0 0.1 0.1 0.1 0.0 0.0 0.0 0.0 0.1 0.1 0.0 0.0 0.0 0.0 0.0 0.0 0.0 nan nan nan nan nan nan nan nan nan nan
0.1 0.1 0.1 0.1 0.0 0.0 0.1 0.1 0.1 0.0 0.0 0.0 0.0 0.0 0.0 0.0 0.0 0.0 0.0 0.0 0.0 0.0 0.0 0.6 0.0 0.0 0.0 0.0 nan nan nan nan nan nan nan nan nan nan
0.1 0.1 0.1 0.1 nan nan 0.1 0.2 0.1 0.1 nan nan nan nan nan nan nan 0.3 1.0 1.7 0.7 0.0 0.0 0.4 0.0 0.0 0.0 0.0 0.0 nan nan nan nan nan nan nan nan nan
0.2 0.1 nan 0.0 nan nan 0.1 0.1 0.2 0.1 0.0 0.0 0.0 0.0 nan nan nan 0.0 0.5 1.7 0.8 1.1 0.0 0.6 0.2 0.7 3.4 0.9 0.1 0.0 0.0 nan nan nan nan nan nan 0.0
0.6 0.5 0.2 nan nan nan nan 0.1 0.1 0.1 0.1 0.2 0.2 0.1 0.1 0.0 0.0 0.0 0.0 0.2 0.7 1.0 0.0 0.4 1.9 1.4 2.5 2.5 0.5 0.2 0.0 0.0 0.0 0.0 nan nan nan 0.0
0.5 0.3 0.1 nan nan nan nan nan nan nan 0.6 0.8 0.6 0.6 0.3 0.2 0.1 0.0 0.0 0.0 0.0 0.1 0.0 0.0 6.8 1.3 4.6 4.7 2.7 0.6 0.5 0.1 0.1 0.1 0.0 nan nan nan
0.4 0.3 nan nan nan nan nan nan nan 0.7 0.9 1.8 1.2 0.6 0.3 0.2 0.3 0.6 0.3 0.3 0.4 0.2 0.1 0.2 1.1 0.6 2.4 5.7 4.0 2.0 1.4 1.3 0.6 0.7 0.5 0.3 0.2 0.1
nan 0.5 nan 0.3 nan nan 0.4 0.4 0.5 0.4 0.7 0.8 0.8 0.7 1.0 2.1 2.5 1.6 2.9 2.6 4.6 5.4 1.5 0.6 0.7 0.7 7.4 3.9 3.7 4.9 2.4 5.4 1.9 1.3 1.1 1.1 0.9 0.8
nan 1.3 2.1 2.0 1.9 1.6 1.3 0.9 1.0 1.2 1.6 1.3 1.8 2.0 2.2 2.3 2.6 2.1 2.4 4.1 6.5 6.4 6.9 5.1 3.0 1.6 2.9 4.2 10.9 4.0 3.2 3.1 1.6 2.1 2.4 2.6 1.4 0.9
6.6 7.5 6.0 4.3 3.5 2.4 2.1 2.0 1.8 1.7 1.6 1.9 2.4 2.4 3.3 3.7 4.1 5.1 4.2 5.7 6.6 5.5 6.7 6.7 7.4 9.2 7.1 5.4 3.4 3.7 2.9 3.0 2.3 2.1 2.2 3.9 2.1 0.9
6.2 5.4 5.6 6.0 6.2 5.3 3.9 3.4 4.0 2.3 0.8 3.2 4.0 4.2 4.4 5.0 5.6 6.7 5.8 5.3 6.1 5.5 5.9 6.2 7.7 8.9 14.4 10.5 3.2 nan 5.2 3.6 3.6 3.8 2.2 2.7 2.3 1.0
5.6 6.2 6.1 6.6 7.7 7.7 6.9 7.1 5.8 5.2 5.1 4.8 5.0 5.4 6.2 7.7 8.9 8.4 7.1 8.3 7.4 8.2 9.3 8.1 8.2 8.0 12.9 11.1 12.8 5.3 nan 4.2 3.7 3.9 5.3 2.4 1.3 nan
5.8 7.3 5.7 7.3 8.9 8.6 8.4 8.0 7.5 7.4 7.5 9.2 7.8 8.2 7.9 9.1 9.2 7.1 6.8 6.1 nan 11.1 13.0 8.0 4.7 nan 12.7 15.6 19.8 9.2 5.1 nan 1.3 3.4 4.5 5.7 4.4 2.0
5.2 6.5 7.9 7.0 7.9 9.1 9.7 9.8 10.9 10.8 10.0 8.4 8.4 7.9 7.3 7.5 9.5 7.2 6.6 8.8 6.7 5.6 7.2 6.8 8.7 8.8 10.3 9.4 9.0 6.7 5.6 3.5 nan nan nan nan 12.0 19.2
5.5 5.2 6.7 7.3 6.9 7.7 9.3 11.1 12.2 11.4 9.8 9.6 9.3 7.8 7.1 10.9 5.2 5.8 6.5 6.6 7.9 9.4 8.5 12.0 8.4 7.4 7.0 7.7 10.4 10.4 7.9 5.6 4.2 4.9 4.9 nan nan nan
Water_Equivalent
0.00 0.00 0.00 0.00 0.00 0.00 0.00 0.00 0.00 0.04 0.00 0.00 0.00 0.00 0.00 0.00 0.00 0.00 0.00 nan nan nan nan nan nan nan nan nan nan nan nan nan nan nan nan nan nan nan
0.00 0.00 0.00 0.00 0.00 0.00 0.00 0.00 0.00 0.01 0.03 0.00 0.00 0.00 0.00 0.00 0.00 0.00 0.00 nan nan nan nan nan nan nan nan nan nan nan nan nan nan nan nan nan nan nan
0.00 0.00 0.00 0.00 0.00 0.00 0.00 0.00 0.00 0.00 0.05 0.00 0.00 0.00 0.00 0.00 0.00 0.00 0.00 0.00 0.00 nan nan nan nan nan nan nan nan nan nan nan nan nan nan nan nan nan
0.00 0.00 0.00 0.00 0.00 0.00 0.00 0.00 0.00 0.00 0.00 0.00 0.00 0.00 0.00 0.00 0.00 0.00 0.00 0.00 0.00 nan nan nan nan nan nan nan nan nan nan nan nan nan nan nan nan nan
0.00 0.00 0.00 0.00 0.00 0.00 0.00 0.00 0.00 0.00 0.00 0.00 0.00 0.00 0.00 0.00 0.00 0.00 0.00 0.00 0.00 nan nan nan nan nan nan nan nan nan nan nan nan nan nan nan nan nan
0.00 0.00 0.00 0.00 0.00 0.00 0.00 0.00 0.00 0.00 0.00 0.00 0.00 0.00 0.00 0.00 0.00 0.00 0.00 0.00 0.00 0.00 nan nan nan nan nan nan nan nan nan nan nan nan nan nan nan nan
0.00 0.00 0.00 nan nan nan 0.00 0.00 0.00 0.00 0.00 0.00 0.00 0.00 0.00 0.00 0.00 0.00 0.00 0.00 0.00 0.00 0.00 0.00 0.00 0.00 0.00 nan nan nan nan nan nan nan nan nan nan nan
0.02 0.01 0.00 0.00 0.00 nan nan nan nan 0.01 0.02 0.07 0.00 0.02 0.00 0.01 0.00 0.00 0.00 0.00 0.11 0.00 0.00 0.00 0.00 0.00 0.00 0.00 nan nan nan nan nan nan nan nan nan nan
0.02 0.02 0.01 0.00 nan 0.00 nan nan nan nan nan 0.01 0.03 0.04 0.02 0.00 0.00 0.01 0.00 0.02 0.05 0.00 0.00 0.00 0.00 0.00 0.00 0.00 nan nan nan nan nan nan nan nan nan nan
0.02 0.02 0.02 0.02 0.02 0.02 0.02 0.02 0.02 0.01 0.00 0.00 0.00 0.00 0.00 0.00 0.00 0.00 0.00 0.00 0.00 0.00 0.00 0.17 0.00 0.00 0.00 0.00 nan nan nan nan nan nan nan nan nan nan
0.02 0.02 0.02 0.02 nan nan 0.03 0.04 0.03 0.02 nan nan nan nan nan nan nan 0.09 0.26 0.40 0.17 0.01 0.00 0.09 0.01 0.01 0.01 0.00 0.00 nan nan nan nan nan nan nan nan nan
0.05 0.03 nan 0.01 nan nan 0.02 0.03 0.04 0.03 0.01 0.01 0.00 0.00 nan nan nan 0.00 0.16 0.41 0.25 0.31 0.01 0.21 0.09 0.17 0.64 0.19 0.02 0.00 0.00 nan nan nan nan nan nan 0.00
0.15 0.13 0.05 nan nan nan nan 0.03 0.03 0.01 0.03 0.07 0.04 0.03 0.02 0.01 0.00 0.00 0.00 0.04 0.20 0.29 0.00 0.13 0.62 0.41 0.69 0.56 0.13 0.05 0.00 0.00 0.00 0.00 nan nan nan 0.00
0.13 0.09 0.03 nan nan nan nan nan nan nan 0.15 0.20 0.15 0.14 0.09 0.06 0.02 0.00 0.00 0.00 0.00 0.02 0.01 0.01 2.33 0.39 1.51 1.18 0.66 0.15 0.12 0.03 0.02 0.04 0.01 nan nan nan
0.10 0.08 nan nan nan nan nan nan nan 0.17 0.22 0.37 0.26 0.15 0.08 0.07 0.06 0.15 0.07 0.07 0.08 0.05 0.03 0.06 0.38 0.19 0.74 1.48 0.99 0.62 0.35 0.28 0.16 0.17 0.13 0.07 0.05 0.03
nan 0.15 nan 0.09 nan nan 0.10 0.09 0.12 0.10 0.16 0.18 0.19 0.17 0.25 0.46 0.52 0.38 0.75 0.65 1.12 1.10 0.29 0.13 0.15 0.15 1.88 0.89 0.85 0.95 0.56 1.21 0.41 0.29 0.23 0.21 0.15 0.13
nan 0.36 0.57 0.49 0.48 0.37 0.35 0.23 0.24 0.27 0.37 0.33 0.40 0.43 0.47 0.51 0.57 0.50 0.61 1.00 1.53 1.30 1.39 1.14 0.50 0.30 0.65 0.80 2.03 0.73 0.61 0.68 0.31 0.40 0.43 0.40 0.20 0.14
1.54 1.71 1.50 1.17 0.88 0.58 0.49 0.51 0.43 0.41 0.40 0.45 0.55 0.56 0.75 0.84 0.92 1.16 1.00 1.24 1.39 1.07 1.31 1.32 1.48 1.80 1.41 0.95 0.72 0.64 0.51 0.53 0.43 0.36 0.39 0.68 0.34 0.13
1.31 1.19 1.21 1.44 1.58 1.42 0.99 0.84 0.94 0.56 0.17 0.84 0.98 0.99 1.04 1.15 1.30 1.54 1.37 1.13 1.26 1.11 1.15 1.22 1.47 1.74 2.38 1.56 0.51 nan 1.03 0.67 0.66 0.67 0.37 0.48 0.43 0.20
1.06 0.99 1.08 1.30 1.65 1.72 1.67 1.69 1.34 1.19 1.20 1.15 1.21 1.32 1.53 1.88 2.04 1.76 1.51 1.72 1.42 1.52 1.62 1.45 1.54 1.65 2.55 2.10 2.21 0.91 nan 0.76 0.70 0.69 1.02 0.40 0.23 nan
0.94 1.15 0.93 1.25 1.68 1.79 1.80 1.90 1.73 1.72 1.78 2.21 1.77 1.87 1.76 2.02 1.88 1.40 1.29 1.06 nan 1.76 1.94 1.26 0.87 nan 2.70 2.72 2.71 1.17 0.78 nan 0.19 0.91 1.20 1.11 0.82 0.41
0.82 1.04 1.32 1.21 1.39 1.71 2.01 2.24 2.61 2.62 2.40 1.92 1.94 1.81 1.58 1.57 1.82 1.32 1.09 1.52 1.05 0.97 1.33 1.22 1.45 1.58 2.07 1.63 1.31 0.92 0.77 0.55 nan nan nan nan 2.64 3.76
0.89 0.85 1.13 1.29 1.27 1.47 1.84 2.41 2.74 2.71 2.34 2.51 2.39 1.88 1.64 2.13 0.98 1.03 1.10 1.12 1.35 1.59 1.44 1.85 1.39 1.31 1.19 1.34 1.72 1.49 1.09 0.81 0.72 0.87 0.88 nan nan nan
SL_Ratio
nan nan nan nan nan nan nan nan nan 3.6 nan nan nan nan nan nan nan nan nan nan nan nan nan nan nan nan nan nan nan nan nan nan nan nan nan nan nan nan
nan nan nan nan nan nan nan nan nan 2.9 3.7 nan nan nan nan nan nan nan nan nan nan nan nan nan nan nan nan nan nan nan nan nan nan nan nan nan nan nan
nan nan nan nan nan nan nan nan nan nan 3.3 nan nan nan nan nan nan nan nan nan nan nan nan nan nan nan nan nan nan nan nan nan nan nan nan nan nan nan
nan nan nan nan nan nan nan nan nan nan 5.0 nan nan nan nan nan nan nan nan nan nan nan nan nan nan nan nan nan nan nan nan nan nan nan nan nan nan nan
nan nan nan nan nan nan nan nan nan nan nan 2.5 nan nan nan nan nan nan nan nan nan nan nan nan nan nan nan nan nan nan nan nan nan nan nan nan nan nan
nan nan nan nan nan nan nan nan nan nan nan nan nan nan nan nan nan nan nan nan nan nan nan nan nan nan nan nan nan nan nan nan nan nan nan nan nan nan
nan nan nan nan nan nan nan nan nan nan nan nan nan 5.0 2.9 nan nan nan nan nan nan nan nan nan nan nan nan nan nan nan nan nan nan nan nan nan nan nan
3.7 3.1 nan nan nan nan nan nan nan 3.6 3.6 3.4 5.0 3.5 nan 3.0 nan nan nan 4.0 3.6 nan nan nan nan nan nan nan nan nan nan nan nan nan nan nan nan nan
3.3 3.2 3.3 nan nan nan nan nan nan nan nan 3.6 3.8 3.5 3.8 nan nan 3.6 nan 3.2 2.9 nan 2.5 nan nan nan nan nan nan nan nan nan nan nan nan nan nan nan
3.4 3.3 3.1 2.9 2.9 2.8 2.8 2.6 2.6 3.0 nan nan 2.5 5.0 nan nan nan nan nan nan 2.5 2.9 nan 3.8 nan nan nan nan nan nan nan nan nan nan nan nan nan nan
3.7 3.7 3.5 3.4 nan nan 3.6 4.1 4.0 4.1 nan nan nan nan nan nan nan 3.1 3.8 4.1 4.3 4.1 nan 4.0 3.3 5.0 3.5 nan 3.3 nan nan nan nan nan nan nan nan nan
3.5 3.7 nan 3.5 nan nan 3.7 3.9 4.9 4.3 3.9 3.8 3.3 2.5 nan nan nan nan 3.2 4.2 3.4 3.4 2.8 3.1 2.6 4.3 5.3 4.7 3.5 4.3 nan nan nan nan nan nan nan nan
4.0 3.9 3.8 nan nan nan nan 3.6 4.0 3.9 3.6 3.8 4.1 3.9 4.3 4.4 3.8 nan 5.0 3.5 3.5 3.6 2.5 2.9 3.1 3.4 3.6 4.4 3.4 3.4 5.0 5.0 5.0 5.0 nan nan nan 5.0
3.6 3.4 3.5 nan nan nan nan nan nan nan 3.8 4.1 4.2 4.2 3.8 3.8 3.6 4.0 nan 5.0 nan 3.4 3.5 3.6 2.9 3.2 3.1 3.9 4.1 3.7 3.8 3.8 4.0 3.7 3.8 nan nan nan
3.6 3.4 nan nan nan nan nan nan nan 4.0 4.2 4.8 4.6 3.9 3.2 3.1 4.1 4.3 4.8 4.5 4.4 3.7 4.0 4.2 3.0 3.0 3.2 3.8 4.0 3.3 4.0 4.5 4.0 4.0 4.3 4.0 4.0 4.5
nan 3.6 nan 3.6 nan nan 3.8 4.0 3.9 4.2 4.4 4.5 4.3 4.0 4.1 4.6 4.9 4.2 3.9 4.0 4.1 4.9 5.1 4.8 4.9 4.7 3.9 4.4 4.3 5.2 4.2 4.5 4.7 4.5 4.7 5.5 5.9 6.4
nan 3.7 3.6 4.0 4.0 4.3 3.9 3.8 4.2 4.3 4.4 4.1 4.4 4.6 4.7 4.6 4.6 4.3 3.9 4.1 4.3 4.9 5.0 4.4 6.0 5.3 4.6 5.2 5.3 5.5 5.3 4.6 4.9 5.2 5.7 6.3 6.7 6.5
4.3 4.4 4.0 3.7 4.0 4.1 4.4 4.0 4.2 4.1 4.0 4.2 4.4 4.4 4.3 4.4 4.4 4.4 4.2 4.6 4.7 5.1 5.1 5.1 5.0 5.1 5.0 5.7 4.8 5.8 5.7 5.6 5.4 5.8 5.7 5.8 6.4 6.8
4.8 4.6 4.6 4.1 3.9 3.8 4.0 4.0 4.2 4.2 4.9 3.8 4.1 4.3 4.2 4.3 4.3 4.3 4.2 4.7 4.8 4.9 5.2 5.1 5.2 5.1 6.0 6.7 6.3 nan 5.0 5.3 5.4 5.7 5.9 5.5 5.3 5.1
5.3 6.3 5.7 5.1 4.6 4.5 4.1 4.2 4.4 4.4 4.2 4.2 4.1 4.1 4.1 4.1 4.4 4.8 4.7 4.8 5.2 5.4 5.8 5.6 5.3 4.9 5.1 5.3 5.8 5.9 nan 5.6 5.4 5.6 5.2 5.9 5.7 nan
6.2 6.3 6.1 5.8 5.3 4.8 4.6 4.2 4.3 4.3 4.2 4.2 4.4 4.4 4.5 4.5 4.9 5.1 5.3 5.8 nan 6.3 6.7 6.4 5.5 nan 4.7 5.7 7.3 7.9 6.5 nan 7.0 3.8 3.7 5.2 5.3 4.9
6.3 6.3 6.0 5.8 5.7 5.3 4.8 4.4 4.2 4.1 4.2 4.4 4.3 4.4 4.6 4.8 5.2 5.4 6.0 5.8 6.4 5.8 5.4 5.6 6.0 5.5 5.0 5.8 6.8 7.2 7.3 6.3 nan nan nan nan 4.5 5.1
6.3 6.1 5.9 5.7 5.4 5.3 5.0 4.6 4.4 4.2 4.2 3.8 3.9 4.2 4.3 5.1 5.3 5.6 5.8 5.9 5.9 5.9 5.9 6.5 6.0 5.6 5.9 5.7 6.0 6.9 7.3 6.9 5.9 5.7 5.6 nan nan nan